Location: Tel Aviv
(32.0670°N, 34.7670°E)
Time: 08:28:55
(UTC+02:00)

A-11 Canister half - Visible Passes

Search period start: 29 November 2023 00:00
Search period end: 09 December 2023 00:00
Orbit: 1514 x 1685 km, 47.2° (Epoch: 28 November)

Date Brightness Start Highest point End Pass type
(mag) Time Alt. Az. Time Alt. Az. Time Alt. Az.
29 Nov 10.4 02:24:32 28° NE 02:24:32 28° NE 02:28:57 10° NE visible
29 Nov 10.0 04:22:44 26° NW 04:26:29 33° N 04:35:25 10° ENE visible
30 Nov 10.7 02:02:54 22° NE 02:02:54 22° NE 02:05:56 10° NE visible
30 Nov 9.9 04:01:05 30° NNW 04:03:21 33° N 04:12:15 10° ENE visible
01 Dec 11.0 01:41:15 16° NE 01:41:15 16° NE 01:42:55 10° NE visible
01 Dec 9.9 03:39:26 33° NNW 03:40:12 33° N 03:49:07 10° ENE visible
01 Dec 9.8 05:38:06 10° NW 05:47:38 45° NNE 05:57:15 10° E visible
02 Dec 11.3 01:19:35 11° NE 01:19:35 11° NE 01:19:53 10° NE visible
02 Dec 10.0 03:17:47 33° N 03:17:47 33° N 03:25:59 10° ENE visible
02 Dec 9.9 05:15:59 13° NW 05:24:32 43° NNE 05:34:05 10° E visible
03 Dec 10.2 02:56:07 31° NNE 02:56:07 31° NNE 03:02:50 10° NE visible
03 Dec 9.9 04:54:19 18° NW 05:01:26 42° NNE 05:10:54 10° E visible
04 Dec 10.4 02:34:28 27° NNE 02:34:28 27° NNE 02:39:43 10° NE visible
04 Dec 9.9 04:32:40 23° NW 04:38:20 40° NNE 04:47:43 10° E visible
05 Dec 10.7 02:12:49 22° NE 02:12:49 22° NE 02:16:37 10° NE visible
05 Dec 9.9 04:11:01 28° NNW 04:15:13 39° NNE 04:24:32 10° E visible
06 Dec 10.9 01:51:11 17° NE 01:51:11 17° NE 01:53:30 10° NE visible
06 Dec 9.9 03:49:23 33° NNW 03:52:05 38° NNE 04:01:21 10° E visible
06 Dec 9.3 05:48:16 10° NW 05:58:24 80° NE 06:08:37 10° SE visible
07 Dec 11.2 01:29:34 13° NE 01:29:34 13° NE 01:30:24 10° NE visible
07 Dec 9.8 03:27:46 36° N 03:28:58 37° NNE 03:38:09 10° E visible
07 Dec 9.3 05:25:58 13° NW 05:35:23 76° NE 05:45:35 10° ESE visible
08 Dec 9.9 03:06:11 36° NNE 03:06:11 36° NNE 03:14:57 10° ENE visible
08 Dec 9.3 05:04:24 18° NW 05:12:21 73° NE 05:22:32 10° ESE visible
